AO-07 1 07530U 74089B 23215.44910126 -.00000044 00000-0 12583-4 0 9995 2 07530 101.9499 202.4492 0012129 335.3589 179.7769 12.53665810229336 UO-11 1 14781U 84021B 23215.15783422 .00002328 00000-0 27822-3 0 9990 2 14781 97.6602 190.2808 0009465 54.9149 305.2953 14.85075617122115 AO-16 1 20439U 90005D 23215.51799757 .00000259 00000-0 11110-3 0 9998 2 20439 98.8855 206.9673 0011833 67.5299 47.7384 14.33135380751939 LO-19 1 20442U 90005G 23215.43221915 .00000263 00000-0 11219-3 0 9994 2 20442 98.8470 192.9649 0012548 44.2764 315.9421 14.33289297752172 AO-27 1 22825U 93061C 23215.70684138 .00000173 00000-0 84300-4 0 9998 2 22825 98.8380 259.3555 0007365 292.1056 67.9344 14.30328298557355 IO-26 1 22826U 93061D 23215.34856667 .00000198 00000-0 93183-4 0 9993 2 22826 98.8327 258.8540 0007842 276.9595 83.0695 14.30691564557552 FO-29 1 24278U 96046B 23215.21580247 .00000002 00000-0 40882-4 0 9998 2 24278 98.5316 187.3696 0349210 295.0044 61.5211 13.53151043331548 GO-32 1 25397U 98043D 23215.44173915 .00000137 00000-0 79445-4 0 9991 2 25397 98.8716 173.3132 0001749 39.8184 320.3122 14.23893954302276 ISS 1 25544U 98067A 23215.97535641 .00008964 00000-0 16442-3 0 9990 2 25544 51.6401 91.7588 0001232 157.1833 310.1897 15.50074045409208 NO-44 1 26931U 01043C 23215.10018736 .00000240 00000-0 12253-3 0 9990 2 26931 67.0509 75.6907 0007833 264.8486 95.1721 14.30954430140455 SO-50 1 27607U 02058C 23215.07507285 .00001340 00000-0 20131-3 0 9992 2 27607 64.5545 121.1671 0064434 214.9356 144.7512 14.77449616109365 CO-55 1 27844U 03031E 23215.57714433 .00000482 00000-0 23400-3 0 9995 2 27844 98.6783 222.1406 0009632 356.1847 3.9256 14.22833171 42507 CO-57 1 27848U 03031J 23215.46396691 .00000411 00000-0 20441-3 0 9993 2 27848 98.6820 222.4266 0009859 11.5068 348.6334 14.22336819 42275 RS-22 1 27939U 03042A 23215.76400865 .00001595 00000-0 28344-3 0 9992 2 27939 98.2492 3.1001 0012168 352.3209 111.5698 14.68534484 61525 CO-58 1 28895U 05043F 23215.31092140 .00002009 00000-0 37632-3 0 9992 2 28895 98.1595 347.0296 0014988 284.7797 75.1745 14.65835011947942 CO-65 1 32785U 08021C 23215.79849281 .00004923 00000-0 48243-3 0 9999 2 32785 97.7093 180.7532 0010472 311.6894 48.3428 14.92669871827991 AAUSAT2 1 32788U 08021F 23215.44239379 .00011054 00000-0 78511-3 0 9999 2 32788 97.5611 193.8446 0007874 177.9198 182.2063 15.04854418830319 DO-64 1 32789U 08021G 23215.60720506 .00082294 00000-0 18382-2 0 9998 2 32789 97.2982 236.9745 0001234 296.0797 64.0324 15.43223814834786 CO-66 1 32791U 08021J 23214.86119419 .00007757 00000-0 67325-3 0 9996 2 32791 97.6580 185.1411 0009789 250.5266 109.4898 14.97279487828723 RS-30 1 32953U 08025A 23215.68867020 .00000043 00000-0 23847-3 0 9991 2 32953 82.5026 287.5524 0020667 82.7643 277.5786 12.43127321689552 PRISM 1 33493U 09002B 23214.99875615 .00014371 00000-0 94804-3 0 9999 2 33493 98.2439 232.8296 0014379 245.4828 114.4899 15.07501747790805 SRMSAT 1 37841U 11058D 23215.47228580 .00000507 00000-0 13283-3 0 9999 2 37841 19.9723 284.1347 0011748 190.6085 279.3884 14.10921981609715 HRBE 1 37855U 11061F 23214.89240369 .00027938 00000-0 81411-3 0 9997 2 37855 101.7072 203.0095 0111819 256.3051 102.5704 15.29323099644163 RS-40 1 38735U 12041C 23215.09462880 .00000001 00000-0 -65239-4 0 9995 2 38735 82.4782 8.8362 0017365 191.6130 168.4551 12.42594956499637 ZACUBE-1 1 39417U 13066B 23215.79846792 .00003877 00000-0 44480-3 0 9993 2 39417 97.6883 175.8142 0055946 129.7183 230.8983 14.85306006524260 Delfi-N3xt 1 39428U 13066N 23215.79983411 .00007920 00000-0 11223-2 0 9996 2 39428 97.8316 138.9540 0111045 37.1473 323.7353 14.73084425519323 GOMX-1 1 39430U 13066Q 23215.75578264 .00001910 00000-0 33644-3 0 9996 2 39430 97.7739 104.1201 0144816 182.2850 177.7708 14.62020740516489 LO-74 1 39440U 13066AA 23215.10184715 .00003206 00000-0 41417-3 0 9997 2 39440 97.7740 162.3378 0073391 233.8613 125.5793 14.79763032522299 AO-73 1 39444U 13066AE 23215.77305054 .00005767 00000-0 63110-3 0 9993 2 39444 97.6746 178.3787 0054440 115.0584 245.6297 14.87086303523305 SPROUT 1 39770U 14029E 23215.35545297 .00024550 00000-0 17648-2 0 9999 2 39770 97.9931 344.0724 0007046 148.9755 211.1887 15.04229096499240 DTUSAT-2 1 40030U 14033W 23215.78987186 .00006018 00000-0 57627-3 0 9990 2 40030 97.9689 156.9543 0012304 127.9701 232.2631 14.93503762495611 EO-80 1 40032U 14033Y 23214.82745404 .00005281 00000-0 50657-3 0 9998 2 40032 97.9682 155.9964 0011862 132.4490 227.7734 14.93500161495451 HODOYOSHI-1 1 40299U 14070B 23215.71912789 .00013158 00000-0 39130-3 0 9990 2 40299 97.1906 277.1733 0011915 107.8898 252.3646 15.34791220486095 GRIFEX 1 40379U 15003D 23215.78215576 .00047673 00000-0 91880-3 0 9992 2 40379 99.0779 164.1555 0078051 106.7898 254.1926 15.44370372470728 XW-2C 1 40906U 15049H 23215.73022046 .00013929 00000-0 51691-3 0 9994 2 40906 97.4929 223.0610 0010864 6.3351 353.8024 15.27648507435655 XW-2D 1 40907U 15049J 23215.75003993 .00017612 00000-0 61023-3 0 9990 2 40907 97.4909 223.7511 0009476 0.3536 359.7709 15.29860156435751 LILACSAT-2 1 40908U 15049K 23215.75358370 .00007549 00000-0 34956-3 0 9996 2 40908 97.5251 218.6937 0014520 32.1015 328.1101 15.20308752435025 XW-2E 1 40909U 15049L 23215.75266824 .00035327 00000-0 84098-3 0 9996 2 40909 97.4503 230.5293 0005175 318.8115 41.2741 15.41523585436462 XW-2F 1 40910U 15049M 23215.70605928 .00035610 00000-0 86733-3 0 9998 2 40910 97.4596 229.7307 0005982 322.5820 37.5009 15.40824612436192 XW-2B 1 40911U 15049N 23215.75335264 .00017398 00000-0 60739-3 0 9998 2 40911 97.4888 224.1610 0009552 2.0401 358.0876 15.29614092435632 DCBB 1 40912U 15049P 23215.71648332 .00049337 00000-0 93846-3 0 9991 2 40912 97.4134 234.5693 0005323 250.7636 109.3038 15.48073404436957 IO-86 1 40931U 15052B 23214.60751666 .00001279 00000-0 87192-4 0 9999 2 40931 5.9993 115.1242 0013554 234.1244 125.7624 14.77297346424229 ATHENOXAT-1 1 41168U 15077C 23215.61302579 .01285161 75093-3 29151-2 0 9997 2 41168 14.9817 201.4876 0006359 182.8414 177.1883 15.96241893423799 ChubuSat-2 1 41338U 16012B 23215.38955851 .00004489 00000-0 30753-3 0 9992 2 41338 31.0024 275.9532 0012030 288.0876 71.8450 15.04369823409491 ChubuSat-3 1 41339U 16012C 23215.52205102 .00004015 00000-0 27573-3 0 9997 2 41339 31.0086 272.3139 0011969 296.6944 63.2467 15.04193535409505 Horyu-4 1 41340U 16012D 23215.11224748 .00008912 00000-0 54986-3 0 9999 2 41340 31.0028 241.3535 0010888 352.2918 7.7551 15.08578419409811 e-st@r-II 1 41459U 16025D 23215.64924090 .00028815 00000-0 77476-3 0 9992 2 41459 98.1811 61.8624 0099330 293.5740 65.5091 15.32915896400160 AAUSAT4 1 41460U 16025E 23215.67343053 .00238184 00000-0 16597-2 0 9999 2 41460 98.1480 77.0103 0040180 233.2916 126.4652 15.72545228401196 LO-87 1 41557U 16033B 23215.77908726 .00105384 00000-0 97644-3 0 9998 2 41557 97.3893 325.8217 0005081 297.3289 62.7454 15.67147858401066 NuSat2 1 41558U 16033C 23215.74921715 .00137027 00000-0 99719-3 0 9993 2 41558 97.4183 334.4327 0005716 281.3130 78.7492 15.72900289401421 Lapan A3 1 41603U 16040E 23215.77169650 .00003052 00000-0 13342-3 0 9995 2 41603 97.1641 239.1393 0013769 142.1880 218.0327 15.22718220394733 Pratham 1 41783U 16059A 23215.66045427 .00000942 00000-0 18699-3 0 9992 2 41783 97.8668 244.6579 0031793 311.9540 47.8954 14.64051716365929 TY-1 1 41844U 16066D 23215.75820536 .00079919 00000-0 97837-3 0 9991 2 41844 97.3627 236.5993 0006434 207.7746 152.3168 15.60096309375082 CAS-2T 1 41847U 16066G 23215.77461799 .00001874 00000-0 28440-3 0 9997 2 41847 98.5017 284.0952 0359951 54.7883 308.6449 14.39899493353658 CAS-4B 1 42759U 17034B 23215.70154649 .00009084 00000-0 44608-3 0 9997 2 42759 43.0134 211.3897 0010043 43.8258 316.3386 15.18232139338855 CAS-4A 1 42761U 17034D 23215.45447697 .00011090 00000-0 54180-3 0 9996 2 42761 43.0126 211.2909 0010773 43.9684 316.2020 15.18231156338825 NIUSat 1 42766U 17036B 23215.08941850 .00035981 00000-0 84230-3 0 9996 2 42766 97.1528 245.4123 0006892 290.5030 69.5478 15.42012564339839 Aalto 1 1 42775U 17036L 23215.02959325 .00024535 00000-0 67179-3 0 9992 2 42775 97.1487 243.7676 0007146 298.6328 61.4198 15.37294642339719 URSA MAIOR 1 42776U 17036M 23214.63893076 .00025197 00000-0 64163-3 0 9994 2 42776 97.1496 244.8734 0006595 293.6522 66.4032 15.39531727339739 Max Valier Sat 1 42778U 17036P 23215.07990639 .00030941 00000-0 74495-3 0 9990 2 42778 97.1499 248.8796 0005095 290.6085 69.4615 15.41206188339947 Pegasus 1 42784U 17036V 23215.68399593 .00048074 00000-0 80939-3 0 9992 2 42784 97.1422 252.6469 0003852 255.8203 104.2622 15.51562641340335 SUCHAI 1 1 42788U 17036Z 23215.64556894 .00133302 00000-0 12428-2 0 9997 2 42788 97.1367 257.2392 0004437 221.7530 138.3393 15.66909176340706 SKCUBE 1 42789U 17036AA 23215.67299714 .00076969 00000-0 10145-2 0 9995 2 42789 97.1381 255.1866 0004232 239.9831 120.1006 15.58159490340497 VENTA 1 1 42791U 17036AC 23215.62929584 .00051971 00000-0 86501-3 0 9994 2 42791 97.1422 253.8111 0003090 251.2341 108.8577 15.51870157340385 Robusta 1B 1 42792U 17036AD 23215.63195523 .00108970 00000-0 11616-2 0 9990 2 42792 97.1356 256.6912 0003925 218.6821 141.4158 15.63605809340605 D-SAT 1 42794U 17036AF 23215.02735644 .00004352 00000-0 34222-3 0 9997 2 42794 97.4663 204.9252 0116760 143.6602 217.2622 14.96057985332969 TechnoSat 1 42829U 17042E 23215.61663546 .00003395 00000-0 32375-3 0 9992 2 42829 97.3874 50.2259 0014815 69.1958 291.0849 14.93877395329570 AO-91 1 43017U 17073E 23215.64178078 .00006027 00000-0 42087-3 0 9996 2 43017 97.6234 98.1155 0229287 272.5225 84.9763 14.86844866308230 PICSAT 1 43132U 18004X 23215.23678426 .00132744 00000-0 11957-2 0 9993 2 43132 97.3239 300.1651 0003794 255.1621 104.9220 15.67767694309894 AO-92 1 43137U 18004AC 23215.13493031 .00052279 00000-0 94038-3 0 9990 2 43137 97.3264 294.9483 0003542 327.5496 32.5537 15.49670678309561 TianYi 2 1 43155U 18008A 23215.77704727 .00022493 00000-0 83692-3 0 9990 2 43155 97.2941 267.2026 0014132 137.7510 222.4821 15.27412683305910 Zhou Enlai 1 43156U 18008B 23215.76573936 .00025375 00000-0 92180-3 0 9990 2 43156 97.2990 267.3850 0011709 138.0301 222.1839 15.28208073305845 TianYi 6 1 43158U 18008D 23215.67840287 .00018879 00000-0 76808-3 0 9998 2 43158 97.3002 264.0015 0011928 141.5951 218.6138 15.24498171305659 S-Net D 1 43186U 18014G 23215.72618830 .00004595 00000-0 36552-3 0 9991 2 43186 97.6206 118.6213 0016373 19.8321 340.3536 15.00800737300682 S-Net B 1 43187U 18014H 23215.72750490 .00004644 00000-0 36931-3 0 9997 2 43187 97.6207 118.5480 0016931 17.3736 342.8064 15.00795701300689 S-Net A 1 43188U 18014J 23215.72754336 .00004634 00000-0 36855-3 0 9995 2 43188 97.6211 118.6393 0016855 17.6099 342.5706 15.00798100300685 S-Net C 1 43189U 18014K 23215.73008268 .00004653 00000-0 36995-3 0 9999 2 43189 97.6212 118.5269 0017771 12.6959 347.4709 15.00791000299233 CubeBel-1 1 43666U 18083E 23215.77791716 .00036895 00000-0 88367-3 0 9999 2 43666 97.3762 247.7543 0006112 312.2833 47.7894 15.41324228264525 Changshagaoxin 1 43669U 18083H 23215.73509517 .00030287 00000-0 83235-3 0 9992 2 43669 97.3760 242.0622 0004408 320.4295 39.6627 15.37155970264245 Ten-Koh 1 43677U 18084G 23215.39265212 .00003063 00000-0 29772-3 0 9993 2 43677 98.0196 356.1690 0014792 357.5791 2.5353 14.93285977259102 PO-101 1 43678U 18084H 23215.68995401 .00002212 00000-0 21524-3 0 9998 2 43678 98.0292 0.6368 0009704 13.0219 347.1249 14.93594609259353 QO-100 1 43700U 18090A 23215.02621064 .00000134 00000-0 00000+0 0 9993 2 43700 0.0248 96.1254 0002441 73.8584 176.5810 1.00270575 17400 Reaktor Hello World 1 43743U 18096AA 23214.77314792 .00103865 00000-0 10207-2 0 9992 2 43743 97.3150 303.3295 0005859 359.3334 0.7917 15.65675970261442 MinXSS-2 1 43758U 18099A 23215.09390135 .00007506 00000-0 57178-3 0 9996 2 43758 97.6025 278.2671 0017139 332.2865 27.7445 15.02236703254785 AO-95 1 43770U 18099N 23214.71867364 .00006427 00000-0 51562-3 0 9993 2 43770 97.5708 274.9984 0014081 357.9007 2.2156 15.00344385254580 RANGE-B 1 43772U 18099Q 23214.73436295 .00008565 00000-0 65409-3 0 9992 2 43772 97.5678 277.9214 0005958 286.4632 73.5938 15.02196324254657 RANGE-A 1 43773U 18099R 23215.74055077 .00003478 00000-0 29257-3 0 9999 2 43773 97.5606 273.9348 0011973 323.0766 36.9632 14.98842081254682 MOVE-II 1 43780U 18099Y 23215.73350541 .00012034 00000-0 85785-3 0 9996 2 43780 97.5675 278.7751 0008167 358.6306 1.4897 15.04692440254884 SNUSat 2 1 43782U 18099AA 23215.68742459 .00004995 00000-0 40374-3 0 9997 2 43782 97.5671 276.4690 0012046 298.6068 61.3944 15.00188903254752 SnugLite 1 43784U 18099AC 23214.75221859 .00005343 00000-0 42527-3 0 9992 2 43784 97.5588 275.2337 0005661 316.8992 43.1788 15.00787901254656 ITASat 1 1 43786U 18099AE 23215.13215922 .00005669 00000-0 46002-3 0 9994 2 43786 97.5772 276.4387 0013875 339.8359 20.2315 14.99960339254689 EAGLET 1 1 43790U 18099AJ 23215.12136904 .00004796 00000-0 39571-3 0 9993 2 43790 97.5723 276.8589 0010331 339.0653 21.0146 14.99428515254418 ESEO 1 43792U 18099AL 23215.72835572 .00002803 00000-0 24287-3 0 9993 2 43792 97.5676 275.7801 0011583 333.6385 26.4247 14.97853317254505 CSIM 1 43793U 18099AM 23215.74854425 .00009706 00000-0 68438-3 0 9999 2 43793 97.5727 280.1760 0014381 328.6659 31.3709 15.05103379254733 Astrocast 0.1 1 43798U 18099AS 23215.74054332 .00009873 00000-0 72778-3 0 9990 2 43798 97.5802 279.4530 0011047 304.4149 55.6031 15.03463117254914 JO-97 1 43803U 18099AX 23215.10920312 .00007156 00000-0 55790-3 0 9994 2 43803 97.5731 276.5015 0012852 307.4152 52.5902 15.01420363254737 Suomi 100 1 43804U 18099AY 23215.38373996 .00006568 00000-0 51640-3 0 9991 2 43804 97.5723 276.5304 0018643 318.8050 41.1767 15.01051983254772 Al Farabi 2 1 43805U 18099AZ 23215.40269520 .00008626 00000-0 64559-3 0 9992 2 43805 97.5554 277.6510 0011766 303.4019 56.6080 15.02919004254845 CHOMPTT 1 43855U 18104G 23215.23493686 .00030961 00000-0 70222-3 0 9998 2 43855 85.0310 134.0974 0014344 129.4277 230.8248 15.42811304257820 ISAT 1 43879U 18111D 23214.97334058 .00008427 00000-0 62834-3 0 9991 2 43879 97.6386 118.7873 0015096 12.3831 347.7762 15.03037763249349 UWE-4 1 43880U 18111E 23215.30846897 .00006829 00000-0 51279-3 0 9995 2 43880 97.6284 119.7692 0019245 18.8098 341.3834 15.02782821249446 Sparrow 1 43881U 18111F 23215.70128746 .00008413 00000-0 62170-3 0 9999 2 43881 97.6430 120.9076 0012378 50.1976 310.0337 15.03407018249527 Lume 1 1 43908U 18111AJ 23215.20056185 .00044193 00000-0 78665-3 0 9992 2 43908 97.1316 97.8623 0012506 40.6169 319.6013 15.49926310256666 FO-99 1 43937U 19003F 23215.56576503 .00083299 00000-0 10492-2 0 9998 2 43937 97.0807 242.3784 0013069 106.8096 253.4596 15.59254066253410 AstroCast 0.2 1 44083U 19018F 23215.71957385 .00102364 00000-0 14429-2 0 9994 2 44083 97.2608 276.0843 0003800 88.1392 272.0298 15.56258101241792 AISTechSat 3 1 44103U 19018AB 23215.70729107 .00032734 00000-0 72210-3 0 9991 2 44103 97.2488 273.9095 0009864 104.7813 255.4529 15.43782482241832 AISat 1 1 44104U 19018AC 23215.78394158 .00025924 00000-0 46526-3 0 9998 2 44104 97.3738 308.0630 0039676 85.5574 275.0208 15.48986497243089 Prox-1 1 44339U 19036A 23214.37818931 .00007617 00000-0 15101-2 0 9995 2 44339 24.0015 110.7509 0009430 55.8076 304.3310 14.60006218218448 Move-IIb 1 44398U 19038N 23215.49991760 .00070379 00000-0 14270-2 0 9999 2 44398 97.6604 200.7542 0016464 118.4450 241.8460 15.45992351225969 SONATE 1 44400U 19038Q 23215.44336426 .00011385 00000-0 49483-3 0 9997 2 44400 97.6865 194.1014 0021747 143.0462 217.2276 15.22240177225429 BeeSat 9 1 44412U 19038AC 23215.39747934 .00027152 00000-0 86855-3 0 9997 2 44412 97.6760 197.6709 0017302 133.0676 227.2017 15.32248067225389 JAISAT-1 1 44419U 19038F 23214.75045576 .00029788 00000-0 94538-3 0 9990 2 44419 97.6751 198.1020 0016610 131.4807 228.7863 15.32493361225662 Taurus 1 1 44530U 19059C 23215.74857546 .00004565 00000-0 11768-2 0 9994 2 44530 98.5586 324.3029 0011506 307.3802 52.6344 14.50506118205538 Duchifat 3 1 44854U 19089C 23215.26089423 .00010428 00000-0 68639-3 0 9999 2 44854 36.9610 169.7927 0008748 329.0996 30.9232 15.07014200199938 OPS-SAT 1 44878U 19092F 23214.78190366 .00032086 00000-0 89095-3 0 9997 2 44878 97.4734 44.2043 0007490 333.3382 26.7476 15.36805423200943 TO-108 1 44881U 19093C 23215.74262589 .00001278 00000-0 16494-3 0 9998 2 44881 97.8603 293.3848 0013310 284.3660 75.6076 14.82645973195841 FloripaSat 1 1 44885U 19093G 23215.75276952 .00004400 00000-0 50680-3 0 9997 2 44885 97.8673 296.3966 0012148 284.6585 75.3283 14.86180700196016 RS-44 1 44909U 19096E 23213.80306792 .00000013 00000-0 -15215-5 0 9991 2 44909 82.5242 317.6371 0218490 80.4262 282.1453 12.79722108168048 BY70-2 1 45857U 20042B 23215.78016100 .00024045 00000-0 23508-2 0 9998 2 45857 97.9249 295.9002 0009380 199.3686 160.7178 14.92305342166635 UPMSat 2 1 46276U 20061E 23215.10251445 .00010533 00000-0 43397-3 0 9990 2 46276 97.3439 281.7231 0002477 130.5653 229.5801 15.24272842161438 AmicalSat 1 46287U 20061R 23214.73167033 .00015031 00000-0 67544-3 0 9997 2 46287 97.3975 280.3938 0000516 282.5279 77.5899 15.21237416160788 SALSAT 1 46495U 20068K 23214.76961492 .00004737 00000-0 30999-3 0 9994 2 46495 97.7719 163.2851 0014146 328.0525 31.9844 15.08180267156095 CAPE 3 1 47309U 21002A 23214.64497485 .00037912 00000-0 81399-3 0 9992 2 47309 60.6737 240.3687 0008349 299.7582 60.2684 15.44441701141452 AO-109 1 47311U 21002C 23214.59461467 .00028179 00000-0 67188-3 0 9995 2 47311 60.6777 239.8083 0005549 291.1311 68.9192 15.41458896141445 ExoCube 2 1 47319U 21002L 23214.55469369 .00027218 00000-0 66858-3 0 9994 2 47319 60.6758 242.3346 0006604 290.9542 69.0846 15.40566651141355 UVSQ-SAT 1 47438U 21006AB 23215.13993603 .00019294 00000-0 75474-3 0 9997 2 47438 97.3808 271.6087 0007783 273.8581 86.1768 15.25851076139800 YUSAT 1 1 47439U 21006AC 23215.08222945 .00026687 00000-0 95299-3 0 9997 2 47439 97.3814 272.5043 0007227 269.0279 91.0133 15.28803251139855 SOMP 2b 1 47445U 21006AJ 23215.08665610 .00018574 00000-0 74452-3 0 9998 2 47445 97.3774 270.7333 0007664 280.5028 79.5346 15.25043403139763 IDEASSat 1 47458U 21006AX 23215.08779084 .00017629 00000-0 72159-3 0 9995 2 47458 97.3872 271.5284 0007015 279.5657 80.4788 15.24353862139747 CubeSX-Sirius-HSE 1 47951U 21022V 23215.79931261 .00010923 00000-0 59714-3 0 9998 2 47951 97.4911 112.3951 0019006 164.5459 195.6357 15.14303631130233 CubeSX-HSE 1 47952U 21022W 23215.77048360 .00009797 00000-0 53499-3 0 9997 2 47952 97.4914 112.4182 0018985 163.4641 196.7214 15.14373652130234 KSU-Cubesat 1 47954U 21022Y 23215.66182082 .00012447 00000-0 66050-3 0 9990 2 47954 97.4920 112.7558 0018326 162.3939 197.7933 15.15336765129962 GRBAlpha 1 47959U 21022AD 23215.75451306 .00009749 00000-0 53119-3 0 9996 2 47959 97.4914 112.4933 0018803 164.0616 196.1211 15.14455521129058 Orbicraft-Zorkiy 1 47960U 21022AE 23215.75516004 .00010702 00000-0 57045-3 0 9998 2 47960 97.4945 112.9915 0018403 162.8078 197.3782 15.15218891129765 STECCO 1 47962U 21022AG 23215.76086778 .00022264 00000-0 97487-3 0 9991 2 47962 97.4912 115.8089 0013794 146.9027 213.3074 15.21956290129278 MO-110 1 47964U 21022AJ 23214.73222268 .00023858 00000-0 10175-2 0 9993 2 47964 97.4935 115.4517 0015739 146.3526 213.8713 15.22811904129151 FEES 1 48082U 21022AL 23214.72969383 .00046519 00000-0 15551-2 0 9992 2 48082 97.4925 117.1976 0012267 134.9790 225.2447 15.30780953128977 TUBIN 1 48900U 21059X 23215.69096245 .00009773 00000-0 45278-3 0 9997 2 48900 97.6063 349.6331 0010174 114.7172 245.5123 15.20256689116395 IT-SPINS 1 49017U 21013G 23215.01438497 .00045539 00000-0 93020-3 0 9990 2 49017 51.5881 208.5621 0006363 114.7360 245.4290 15.45686256116940 LEDSAT 1 49069U 21073D 23215.75477949 .00009846 00000-0 52747-3 0 9991 2 49069 97.4797 285.8437 0022300 317.9569 41.9951 15.14993787108100 CUTE 1 49263U 21088D 23215.69862610 .00010417 00000-0 65043-3 0 9998 2 49263 97.5414 280.6967 0019425 100.8365 259.5051 15.09511231101454 TeikyoSat 4 1 49396U 21102B 23215.08791662 .00002916 00000-0 22399-3 0 9995 2 49396 97.5106 265.6199 0013483 279.8990 80.0713 15.02439521 94815 Z-Sat 1 49399U 21102E 23215.75616363 .00004312 00000-0 30542-3 0 9997 2 49399 97.4813 267.3940 0020345 266.7895 93.1004 15.05166979 95040 KOSEN 1 1 49402U 21102H 23215.70681817 .00005475 00000-0 36795-3 0 9990 2 49402 97.4732 267.9417 0019335 253.9658 105.9440 15.07023892 95114 HO-113 1 50466U 21131B 23215.73162910 .00000767 00000-0 26289-3 0 9991 2 50466 98.5512 297.1293 0004237 15.1564 344.9749 14.38988281 84198 Tevel-3 1 50988U 22002E 23215.71871562 .00022900 00000-0 86352-3 0 9996 2 50988 97.4303 282.4141 0008326 75.4173 284.7989 15.27031242 86015 Tevel-8 1 50989U 22002F 23215.73958908 .00023417 00000-0 88481-3 0 9998 2 50989 97.4318 282.4993 0008266 74.5778 285.6374 15.26959624 86011 Tevel-5 1 50998U 22002Q 23215.70197895 .00023402 00000-0 85814-3 0 9996 2 50998 97.4296 282.8398 0009203 69.3622 290.8604 15.27943501 86046 Tevel-6 1 50999U 22002R 23215.70050124 .00023226 00000-0 85177-3 0 9996 2 50999 97.4294 282.8321 0009179 69.1496 291.0726 15.27941680 86044 Tevel-1 1 51013U 22002AF 23215.73003520 .00023549 00000-0 88929-3 0 9991 2 51013 97.4294 282.3606 0008189 75.2034 285.0112 15.26978971 86010 Grizu-263a 1 51025U 22002AT 23215.15223689 .00150236 00000-0 21471-2 0 9992 2 51025 97.4416 289.2528 0002568 75.1560 284.9979 15.55714401 86338 NO-116 1 51031U 22002AZ 23215.72144473 .00044711 00000-0 12558-2 0 9991 2 51031 97.4419 286.0470 0008392 65.5065 294.7053 15.36367273 86199 IRIS-A 1 51044U 22002BN 23215.08219595 .00012750 00000-0 58850-3 0 9996 2 51044 97.4317 279.8419 0009406 81.3063 278.9237 15.20314768 85780 Tevel-7 1 51062U 22002CG 23215.73993234 .00023287 00000-0 87934-3 0 9999 2 51062 97.4313 282.4716 0008200 74.3195 285.8948 15.26982567 86012 Tevel-4 1 51063U 22002CH 23215.74780837 .00023293 00000-0 88125-3 0 9994 2 51063 97.4310 282.4582 0008215 74.1821 286.0323 15.26919160 86010 Tevel-2 1 51069U 22002CP 23215.72038494 .00023417 00000-0 88273-3 0 9995 2 51069 97.4300 282.3856 0008265 75.5530 284.6625 15.27038001 86011 DELFI-PQ 1 51074U 22002CU 23215.42885610 .00058125 00000-0 14317-2 0 9999 2 51074 97.4556 288.4862 0008858 92.7690 267.4570 15.40345216 86269 SO-115 1 51080U 22002DA 23214.43082171 .00027200 00000-0 90711-3 0 9990 2 51080 97.4581 285.3391 0011236 100.6102 259.6405 15.30989686 85968 SO-114 1 51081U 22002DB 23214.15164865 .00031480 00000-0 10425-2 0 9999 2 51081 97.4579 285.0383 0011278 100.2185 260.0329 15.31185482 85927 OreSat0 1 52017U 22026K 23215.00159526 .00022246 00000-0 84711-3 0 9998 2 52017 97.5085 217.5864 0018784 278.6897 81.2213 15.26581323 76689 Planetum 1 1 52738U 22057G 23214.86113225 .00018985 00000-0 84264-3 0 9999 2 52738 97.5429 330.8541 0007113 177.4770 182.6503 15.21591764 65751 Foresail-1 1 52766U 22057AL 23215.79298074 .00011657 00000-0 53736-3 0 9998 2 52766 97.5552 332.6812 0012497 159.4498 200.7242 15.20357653 65914 SNUGLITE 2 1 52899U 22065F 23214.97948474 .00001504 00000-0 32666-3 0 9998 2 52899 98.0750 358.5378 0009180 74.0962 286.1249 14.59433477 57684 CTIM 1 52950U 22074G 23215.12061409 .00077375 00000-0 14365-2 0 9992 2 52950 44.9972 96.0650 0013327 175.6137 184.4873 15.47967214 60861 IO-117 1 53106U 22080B 23213.34424369 -.00000003 00000-0 00000+0 0 9996 2 53106 70.1603 304.0304 0008573 177.8405 182.2293 6.42556888 24659 AstroBioCubeSat 1 53107U 22080C 23025.30817895 -.00000003 00000-0 00000-0 0 9995 2 53107 70.1710 9.4734 0013545 210.3158 149.6718 6.42110537 12478 SelfieSat 1 53951U 22057BC 23214.77140580 .00022010 00000-0 91883-3 0 9990 2 53951 97.5474 331.5617 0009156 173.5832 186.5523 15.23629831 65772 FO-118 1 54684U 22167C 23215.71152464 .00014202 00000-0 75890-3 0 9999 2 54684 97.5688 353.0119 0013715 166.8189 193.3404 15.15125988 35872 SSS-2B 1 56184U 23054G 23215.73325668 .00013886 00000-0 57613-3 0 9992 2 56184 97.4043 110.0629 0009266 219.3540 140.7025 15.23935873 17417 CIRBE 1 56188U 23054L 23215.24050894 .00018262 00000-0 73959-3 0 9992 2 56188 97.4002 109.5817 0007969 212.1727 147.9025 15.24697858 17344 INSPIRE-Sat 7 1 56211U 23054AK 23215.19203399 .00020469 00000-0 78403-3 0 9994 2 56211 97.4020 109.8370 0013356 197.0981 162.9810 15.26483188 17359 RoseyCubesat 1 1 56212U 23054AL 23215.24168159 .00020461 00000-0 77545-3 0 9993 2 56212 97.4029 109.9319 0013715 196.0008 164.0799 15.26830735 17365 ARKSAT 1 1 56311U 98067VC 23215.19757045 .00088496 00000-0 92407-3 0 9997 2 56311 51.6365 90.5428 0004865 234.2002 125.8541 15.63730425 15703 AuroraSat 1 56312U 98067VD 23215.20513989 .00121279 00000-0 11322-2 0 9990 2 56312 51.6346 89.8360 0005432 225.0127 135.0429 15.66400871 15740 Ex-Alta 2 1 56313U 98067VE 23214.87688370 .00105759 00000-0 10989-2 0 9993 2 56313 51.6344 92.1417 0004881 231.5406 128.5151 15.63776558 15674 LightCube 1 56314U 98067VF 23215.73076322 .00111264 00000-0 10622-2 0 9990 2 56314 51.6339 87.3437 0006570 219.6767 140.3748 15.65876173 15840 NEUDOSE 1 56315U 98067VG 23215.75277172 .00056976 00000-0 68807-3 0 9996 2 56315 51.6352 88.9961 0006023 232.2148 127.8300 15.60153361 15770 YukonSat 1 56316U 98067VH 23215.05926369 .00086084 00000-0 95917-3 0 9994 2 56316 51.6358 91.8633 0006047 222.9980 137.0542 15.62072618 15691 URESAT-1 1 56992U 23084BU 23214.55586234 .00013250 00000-0 75658-3 0 9993 2 56992 97.5103 330.3187 0018817 61.4179 298.8943 15.12699090 7659 MRC-100 1 56993U 23084BV 23215.28378044 .00015187 00000-0 86541-3 0 9997 2 56993 97.5114 331.0395 0018851 58.9876 301.3204 15.12741025 7773 UmKA 1 (RS40S) 1 57172U 23091G 23215.74931876 .00005285 00000-0 38947-3 0 9999 2 57172 97.6624 266.0964 0019547 122.4848 237.8270 15.03596376 5588 CubeBel-2 (EU11S) 1 57175U 23091K 23215.76466414 .00007086 00000-0 52921-3 0 9994 2 57175 97.6590 266.0734 0017586 134.6386 225.6277 15.03001812 5589 /EX
